Weather in Orlov

Russia / Kirov Oblast     58°32′20″N   48°53′34″E
temp.,
°C
wind,
m/s
gust,
m/s
humid.,
%
clouds,
%
prec.,
mm/h
press.,
hPa
HPBL,
m
12 may, wed
wed1200:00+10ene2274100 0.0 103014
03:00+9ne2277100 0.0 103035
06:00+12ene236786 0.0 1030121
09:00+18e23503 0.0 1030479
12:00+22e11370 0.0 1029958
15:00+24e11370 0.0 10281099
18:00+22ne22510 0.0 102717
21:00+16e22630 0.0 102713
13 may, thu
thu1300:00+15e127610 0.0 102711
03:00+14e22805 0.0 102723
06:00+17se24725 0.0 1027153
09:00+23se245023 0.0 1027627
12:00+26sse4533100 0.0 10252718
15:00+26sse55345 0.0 10242526
18:00+22sse3850100 0.0 1023244
21:00+17sse3864100 0.0 1023128
14 may, fri
fri1400:00+17se386796 0.0 1022182
03:00+16sse41269100 0.0 1021327
06:00+17s41169100 0.0 1020433
09:00+21ssw47575 0.0 1020832
12:00+25sw57465 0.0 10191889
15:00+25sw5743100 0.0 10192369
18:00+23sw4954100 0.0 1018504
21:00+17sw35765 0.0 101874
15 may, sat
sat1500:00+15sw228743 0.0 101823
03:00+14wsw11915 0.1 101811
06:00+17se117733 0.0 1018136
09:00+22s2363100 0.0 1017657
12:00+26ssw3545100 0.0 10161440
15:00+27ssw47446 0.0 10161948
18:00+24s37565 0.0 1015236
21:00+18s311672 0.0 1015199
16 may, sun
sun1600:00+17ssw4137175 0.0 1015322
03:00+15ssw3107617 0.0 1015204
06:00+18ssw41268100 0.0 1015384
09:00+23s51047100 0.0 1014615
12:00+27ssw7133898 0.0 10141742
15:00+27ssw51040100 0.0 10132214
18:00+23w486098 0.1 1013506
21:00+17sw38851 2.3 1013152